Year,Month,Day,Hour,Minute,Value (Times are PST for temperature in C)
2016,06,21,00,00,16.30
2016,06,21,00,01,16.30
2016,06,21,00,02,16.20
2016,06,21,00,03,16.20
2016,06,21,00,04,16.10
2016,06,21,00,05,16.10
2016,06,21,00,06,16.00
2016,06,21,00,07,16.00
2016,06,21,00,08,15.90
2016,06,21,00,09,15.90
2016,06,21,00,10,15.80
2016,06,21,00,11,15.80
2016,06,21,00,12,15.70
2016,06,21,00,13,15.60
2016,06,21,00,14,15.60
2016,06,21,00,15,15.50
2016,06,21,00,16,15.50
2016,06,21,00,17,15.40
2016,06,21,00,18,15.30
2016,06,21,00,19,15.30
2016,06,21,00,20,15.30
2016,06,21,00,21,15.20
2016,06,21,00,22,15.20
2016,06,21,00,23,15.10
2016,06,21,00,24,15.00
2016,06,21,00,25,15.00
2016,06,21,00,26,15.00
2016,06,21,00,27,15.00
2016,06,21,00,28,15.00
2016,06,21,00,29,15.00
2016,06,21,00,30,15.00
2016,06,21,00,31,15.00
2016,06,21,00,32,15.00
2016,06,21,00,33,14.90
2016,06,21,00,34,14.90
2016,06,21,00,35,14.80
2016,06,21,00,36,14.80
2016,06,21,00,37,14.80
2016,06,21,00,38,14.70
2016,06,21,00,39,14.70
2016,06,21,00,40,14.70
2016,06,21,00,41,14.60
2016,06,21,00,42,14.60
2016,06,21,00,43,14.50
2016,06,21,00,44,14.50
2016,06,21,00,45,14.50
2016,06,21,00,46,14.40
2016,06,21,00,47,14.40
2016,06,21,00,48,14.30
2016,06,21,00,49,14.30
2016,06,21,00,50,14.30
2016,06,21,00,51,14.30
2016,06,21,00,52,14.30
2016,06,21,00,53,14.30
2016,06,21,00,54,14.20
2016,06,21,00,55,14.20
2016,06,21,00,56,14.20
2016,06,21,00,57,14.20
2016,06,21,00,58,14.20
2016,06,21,00,59,14.10
2016,06,21,01,00,14.10
2016,06,21,01,01,14.10
2016,06,21,01,02,14.10
2016,06,21,01,03,14.10
2016,06,21,01,04,14.00
2016,06,21,01,05,14.00
2016,06,21,01,06,14.00
2016,06,21,01,07,13.90
2016,06,21,01,08,13.90
2016,06,21,01,09,13.90
2016,06,21,01,10,13.90
2016,06,21,01,11,13.80
2016,06,21,01,12,13.80
2016,06,21,01,13,13.80
2016,06,21,01,14,13.80
2016,06,21,01,15,13.80
2016,06,21,01,16,13.70
2016,06,21,01,17,13.70
2016,06,21,01,18,13.70
2016,06,21,01,19,13.70
2016,06,21,01,20,13.70
2016,06,21,01,21,13.70
2016,06,21,01,22,13.70
2016,06,21,01,23,13.70
2016,06,21,01,24,13.70
2016,06,21,01,25,13.70
2016,06,21,01,26,13.60
2016,06,21,01,27,13.60
2016,06,21,01,28,13.70
2016,06,21,01,29,13.70
2016,06,21,01,30,13.70
2016,06,21,01,31,13.70
2016,06,21,01,32,13.80
2016,06,21,01,33,13.80
2016,06,21,01,34,13.80
2016,06,21,01,35,13.90
2016,06,21,01,36,14.00
2016,06,21,01,37,14.00
2016,06,21,01,38,14.10
2016,06,21,01,39,14.20
2016,06,21,01,40,14.30
2016,06,21,01,41,14.50
2016,06,21,01,42,14.60
2016,06,21,01,43,14.70
2016,06,21,01,44,14.90
2016,06,21,01,45,15.00
2016,06,21,01,46,15.00
2016,06,21,01,47,15.20
2016,06,21,01,48,15.30
2016,06,21,01,49,15.40
2016,06,21,01,50,15.60
2016,06,21,01,51,15.70
2016,06,21,01,52,15.80
2016,06,21,01,53,15.90
2016,06,21,01,54,16.00
2016,06,21,01,55,16.00
2016,06,21,01,56,16.10
2016,06,21,01,57,16.20
2016,06,21,01,58,16.20
2016,06,21,01,59,16.30
2016,06,21,02,00,16.30
2016,06,21,02,01,16.30
2016,06,21,02,02,16.30
2016,06,21,02,03,16.30
2016,06,21,02,04,16.30
2016,06,21,02,05,16.30
2016,06,21,02,06,16.40
2016,06,21,02,07,16.40
2016,06,21,02,08,16.40
2016,06,21,02,09,16.40
2016,06,21,02,10,16.40
2016,06,21,02,11,16.40
2016,06,21,02,12,16.40
2016,06,21,02,13,16.40
2016,06,21,02,14,16.40
2016,06,21,02,15,16.40
2016,06,21,02,16,16.40
2016,06,21,02,17,16.40
2016,06,21,02,18,16.40
2016,06,21,02,19,16.40
2016,06,21,02,20,16.40
2016,06,21,02,21,16.50
2016,06,21,02,22,16.50
2016,06,21,02,23,16.50
2016,06,21,02,24,16.50
2016,06,21,02,25,16.50
2016,06,21,02,26,16.50
2016,06,21,02,27,16.50
2016,06,21,02,28,16.50
2016,06,21,02,29,16.50
2016,06,21,02,30,16.50
2016,06,21,02,31,16.50
2016,06,21,02,32,16.50
2016,06,21,02,33,16.40
2016,06,21,02,34,16.40
2016,06,21,02,35,16.40
2016,06,21,02,36,16.40
2016,06,21,02,37,16.40
2016,06,21,02,38,16.40
2016,06,21,02,39,16.30
2016,06,21,02,40,16.30
2016,06,21,02,41,16.30
2016,06,21,02,42,16.30
2016,06,21,02,43,16.30
2016,06,21,02,44,16.30
2016,06,21,02,45,16.20
2016,06,21,02,46,16.20
2016,06,21,02,47,16.20
2016,06,21,02,48,16.20
2016,06,21,02,49,16.20
2016,06,21,02,50,16.20
2016,06,21,02,51,16.20
2016,06,21,02,52,16.20
2016,06,21,02,53,16.20
2016,06,21,02,54,16.10
2016,06,21,02,55,16.10
2016,06,21,02,56,16.10
2016,06,21,02,57,16.00
2016,06,21,02,58,16.00
2016,06,21,02,59,16.00
2016,06,21,03,00,15.90
2016,06,21,03,01,15.90
2016,06,21,03,02,15.90
2016,06,21,03,03,15.90
2016,06,21,03,04,15.90
2016,06,21,03,05,15.80
2016,06,21,03,06,15.80
2016,06,21,03,07,15.80
2016,06,21,03,08,15.80
2016,06,21,03,09,15.70
2016,06,21,03,10,15.70
2016,06,21,03,11,15.70
2016,06,21,03,12,15.60
2016,06,21,03,13,15.60
2016,06,21,03,14,15.50
2016,06,21,03,15,15.50
2016,06,21,03,16,15.50
2016,06,21,03,17,15.40
2016,06,21,03,18,15.40
2016,06,21,03,19,15.40
2016,06,21,03,20,15.40
2016,06,21,03,21,15.40
2016,06,21,03,22,15.30
2016,06,21,03,23,15.30
2016,06,21,03,24,15.30
2016,06,21,03,25,15.30
2016,06,21,03,26,15.30
2016,06,21,03,27,15.30
2016,06,21,03,28,15.20
2016,06,21,03,29,15.20
2016,06,21,03,30,15.20
2016,06,21,03,31,15.20
2016,06,21,03,32,15.20
2016,06,21,03,33,15.10
2016,06,21,03,34,15.10
2016,06,21,03,35,15.00
2016,06,21,03,36,15.00
2016,06,21,03,37,15.00
2016,06,21,03,38,15.00
2016,06,21,03,39,15.00
2016,06,21,03,40,15.00
2016,06,21,03,41,15.00
2016,06,21,03,42,15.00
2016,06,21,03,43,15.00
2016,06,21,03,44,15.00
2016,06,21,03,45,15.00
2016,06,21,03,46,15.00
2016,06,21,03,47,15.00
2016,06,21,03,48,15.00
2016,06,21,03,49,15.00
2016,06,21,03,50,15.00
2016,06,21,03,51,14.90
2016,06,21,03,52,14.90
2016,06,21,03,53,14.90
2016,06,21,03,54,14.80
2016,06,21,03,55,14.80
2016,06,21,03,56,14.80
2016,06,21,03,57,14.80
2016,06,21,03,58,14.70
2016,06,21,03,59,14.70
2016,06,21,04,00,14.70
2016,06,21,04,01,14.60
2016,06,21,04,02,14.60
2016,06,21,04,03,14.60
2016,06,21,04,04,14.50
2016,06,21,04,05,14.50
2016,06,21,04,06,14.40
2016,06,21,04,07,14.40
2016,06,21,04,08,14.40
2016,06,21,04,09,14.30
2016,06,21,04,10,14.30
2016,06,21,04,11,14.20
2016,06,21,04,12,14.10
2016,06,21,04,13,14.10
2016,06,21,04,14,14.00
2016,06,21,04,15,14.00
2016,06,21,04,16,13.90
2016,06,21,04,17,13.90
2016,06,21,04,18,14.00
2016,06,21,04,19,14.10
2016,06,21,04,20,14.10
2016,06,21,04,21,14.20
2016,06,21,04,22,14.20
2016,06,21,04,23,14.30
2016,06,21,04,24,14.30
2016,06,21,04,25,14.30
2016,06,21,04,26,14.40
2016,06,21,04,27,14.40
2016,06,21,04,28,14.40
2016,06,21,04,29,14.40
2016,06,21,04,30,14.40
2016,06,21,04,31,14.40
2016,06,21,04,32,14.40
2016,06,21,04,33,14.50
2016,06,21,04,34,14.50
2016,06,21,04,35,14.50
2016,06,21,04,36,14.50
2016,06,21,04,37,14.60
2016,06,21,04,38,14.60
2016,06,21,04,39,14.60
2016,06,21,04,40,14.60
2016,06,21,04,41,14.70
2016,06,21,04,42,14.70
2016,06,21,04,43,14.80
2016,06,21,04,44,14.80
2016,06,21,04,45,14.80
2016,06,21,04,46,14.90
2016,06,21,04,47,14.90
2016,06,21,04,48,14.90
2016,06,21,04,49,14.90
2016,06,21,04,50,14.90
2016,06,21,04,51,14.90
2016,06,21,04,52,14.90
2016,06,21,04,53,14.80
2016,06,21,04,54,14.80
2016,06,21,04,55,14.80
2016,06,21,04,56,14.80
2016,06,21,04,57,14.70
2016,06,21,04,58,14.70
2016,06,21,04,59,14.60
2016,06,21,05,00,14.60
2016,06,21,05,01,14.60
2016,06,21,05,02,14.50
2016,06,21,05,03,14.50
2016,06,21,05,04,14.40
2016,06,21,05,05,14.40
2016,06,21,05,06,14.30
2016,06,21,05,07,14.30
2016,06,21,05,08,14.30
2016,06,21,05,09,14.30
2016,06,21,05,10,14.20
2016,06,21,05,11,14.20
2016,06,21,05,12,14.20
2016,06,21,05,13,14.20
2016,06,21,05,14,14.20
2016,06,21,05,15,14.10
2016,06,21,05,16,14.10
2016,06,21,05,17,14.10
2016,06,21,05,18,14.10
2016,06,21,05,19,14.10
2016,06,21,05,20,14.10
2016,06,21,05,21,14.10
2016,06,21,05,22,14.10
2016,06,21,05,23,14.10
2016,06,21,05,24,14.10
2016,06,21,05,25,14.10
2016,06,21,05,26,14.10
2016,06,21,05,27,14.10
2016,06,21,05,28,14.10
2016,06,21,05,29,14.10
2016,06,21,05,30,14.10
2016,06,21,05,31,14.00
2016,06,21,05,32,14.00
2016,06,21,05,33,13.90
2016,06,21,05,34,13.80
2016,06,21,05,35,13.70
2016,06,21,05,36,13.60
2016,06,21,05,37,13.50
2016,06,21,05,38,13.40
2016,06,21,05,39,13.40
2016,06,21,05,40,13.30
2016,06,21,05,41,13.30
2016,06,21,05,42,13.20
2016,06,21,05,43,13.10
2016,06,21,05,44,13.10
2016,06,21,05,45,13.00
2016,06,21,05,46,13.00
2016,06,21,05,47,12.90
2016,06,21,05,48,12.90
2016,06,21,05,49,12.90
2016,06,21,05,50,12.90
2016,06,21,05,51,12.90
2016,06,21,05,52,12.90
2016,06,21,05,53,12.90
2016,06,21,05,54,12.90
2016,06,21,05,55,12.90
2016,06,21,05,56,12.90
2016,06,21,05,57,12.90
2016,06,21,05,58,12.90
2016,06,21,05,59,12.90
2016,06,21,06,00,12.90
2016,06,21,06,01,12.90
2016,06,21,06,02,12.90
2016,06,21,06,03,12.90
2016,06,21,06,04,12.90
2016,06,21,06,05,12.90
2016,06,21,06,06,12.80
2016,06,21,06,07,12.80
2016,06,21,06,08,12.80
2016,06,21,06,09,12.80
2016,06,21,06,10,12.80
2016,06,21,06,11,12.80
2016,06,21,06,12,12.80
2016,06,21,06,13,12.80
2016,06,21,06,14,12.80
2016,06,21,06,15,12.90
2016,06,21,06,16,12.90
2016,06,21,06,17,13.00
2016,06,21,06,18,13.00
2016,06,21,06,19,13.00
2016,06,21,06,20,13.00
2016,06,21,06,21,13.10
2016,06,21,06,22,13.10
2016,06,21,06,23,13.10
2016,06,21,06,24,13.10
2016,06,21,06,25,13.20
2016,06,21,06,26,13.20
2016,06,21,06,27,13.30
2016,06,21,06,28,13.30
2016,06,21,06,29,13.30
2016,06,21,06,30,13.40
2016,06,21,06,31,13.40
2016,06,21,06,32,13.50
2016,06,21,06,33,13.60
2016,06,21,06,34,13.60
2016,06,21,06,35,13.70
2016,06,21,06,36,13.80
2016,06,21,06,37,13.80
2016,06,21,06,38,13.90
2016,06,21,06,39,14.00
2016,06,21,06,40,14.10
2016,06,21,06,41,14.10
2016,06,21,06,42,14.20
2016,06,21,06,43,14.30
2016,06,21,06,44,14.30
2016,06,21,06,45,14.40
2016,06,21,06,46,14.50
2016,06,21,06,47,14.50
2016,06,21,06,48,14.50
2016,06,21,06,49,14.60
2016,06,21,06,50,14.60
2016,06,21,06,51,14.60
2016,06,21,06,52,14.70
2016,06,21,06,53,14.70
2016,06,21,06,54,14.70
2016,06,21,06,55,14.80
2016,06,21,06,56,14.80
2016,06,21,06,57,14.90
2016,06,21,06,58,15.00
2016,06,21,06,59,15.00
2016,06,21,07,00,15.00
2016,06,21,07,01,15.00
2016,06,21,07,02,15.00
2016,06,21,07,03,15.10
2016,06,21,07,04,15.20
2016,06,21,07,05,15.20
2016,06,21,07,06,15.30
2016,06,21,07,07,15.30
2016,06,21,07,08,15.40
2016,06,21,07,09,15.40
2016,06,21,07,10,15.40
2016,06,21,07,11,15.50
2016,06,21,07,12,15.50
2016,06,21,07,13,15.60
2016,06,21,07,14,15.60
2016,06,21,07,15,15.70
2016,06,21,07,16,15.70
2016,06,21,07,17,15.80
2016,06,21,07,18,15.80
2016,06,21,07,19,15.80
2016,06,21,07,20,15.80
2016,06,21,07,21,15.80
2016,06,21,07,22,15.90
2016,06,21,07,23,15.90
2016,06,21,07,24,16.00
2016,06,21,07,25,16.10
2016,06,21,07,26,16.20
2016,06,21,07,27,16.20
2016,06,21,07,28,16.30
2016,06,21,07,29,16.30
2016,06,21,07,30,16.30
2016,06,21,07,31,16.40
2016,06,21,07,32,16.40
2016,06,21,07,33,16.40
2016,06,21,07,34,16.40
2016,06,21,07,35,16.50
2016,06,21,07,36,16.50
2016,06,21,07,37,16.50
2016,06,21,07,38,16.60
2016,06,21,07,39,16.70
2016,06,21,07,40,16.70
2016,06,21,07,41,16.70
2016,06,21,07,42,16.80
2016,06,21,07,43,16.80
2016,06,21,07,44,16.80
2016,06,21,07,45,16.80
2016,06,21,07,46,16.80
2016,06,21,07,47,16.80
2016,06,21,07,48,16.80
2016,06,21,07,49,16.80
2016,06,21,07,50,16.80
2016,06,21,07,51,16.80
2016,06,21,07,52,16.90
2016,06,21,07,53,16.90
2016,06,21,07,54,16.90
2016,06,21,07,55,17.00
2016,06,21,07,56,17.00
2016,06,21,07,57,17.00
2016,06,21,07,58,17.10
2016,06,21,07,59,17.10
2016,06,21,08,00,17.10
2016,06,21,08,01,17.20
2016,06,21,08,02,17.20
2016,06,21,08,03,17.20
2016,06,21,08,04,17.10
2016,06,21,08,05,17.10
2016,06,21,08,06,17.20
2016,06,21,08,07,17.20
2016,06,21,08,08,17.20
2016,06,21,08,09,17.20
2016,06,21,08,10,17.20
2016,06,21,08,11,17.30
2016,06,21,08,12,17.30
2016,06,21,08,13,17.20
2016,06,21,08,14,17.20
2016,06,21,08,15,17.20
2016,06,21,08,16,17.20
2016,06,21,08,17,17.20
2016,06,21,08,18,17.20
2016,06,21,08,19,17.30
2016,06,21,08,20,17.30
2016,06,21,08,21,17.30
2016,06,21,08,22,17.30
2016,06,21,08,23,17.30
2016,06,21,08,24,17.30
2016,06,21,08,25,17.30
2016,06,21,08,26,17.30
2016,06,21,08,27,17.40
2016,06,21,08,28,17.40
2016,06,21,08,29,17.50
2016,06,21,08,30,17.60
2016,06,21,08,31,17.60
2016,06,21,08,32,17.60
2016,06,21,08,33,17.60
2016,06,21,08,34,17.60
2016,06,21,08,35,17.60
2016,06,21,08,36,17.60
2016,06,21,08,37,17.60
2016,06,21,08,38,17.70
2016,06,21,08,39,17.60
2016,06,21,08,40,17.60
2016,06,21,08,41,17.60
2016,06,21,08,42,17.50
2016,06,21,08,43,17.50
2016,06,21,08,44,17.40
2016,06,21,08,45,17.40
2016,06,21,08,46,17.40
2016,06,21,08,47,17.40
2016,06,21,08,48,17.40
2016,06,21,08,49,17.50
2016,06,21,08,50,17.50
2016,06,21,08,51,17.40
2016,06,21,08,52,17.30
2016,06,21,08,53,17.30
2016,06,21,08,54,17.30
2016,06,21,08,55,17.30
2016,06,21,08,56,17.30
2016,06,21,08,57,17.30
2016,06,21,08,58,17.30
2016,06,21,08,59,17.30
2016,06,21,09,00,17.30
2016,06,21,09,01,17.30
2016,06,21,09,02,17.40
2016,06,21,09,03,17.40
2016,06,21,09,04,17.50
2016,06,21,09,05,17.60
2016,06,21,09,06,17.70
2016,06,21,09,07,17.80
2016,06,21,09,08,17.70
2016,06,21,09,09,17.70
2016,06,21,09,10,17.70
2016,06,21,09,11,17.60
2016,06,21,09,12,17.50
2016,06,21,09,13,17.40
2016,06,21,09,14,17.30
2016,06,21,09,15,17.40
2016,06,21,09,16,17.40
2016,06,21,09,17,17.40
2016,06,21,09,18,17.40
2016,06,21,09,19,17.40
2016,06,21,09,20,17.40
2016,06,21,09,21,17.40
2016,06,21,09,22,17.40
2016,06,21,09,23,17.40
2016,06,21,09,24,17.40
2016,06,21,09,25,17.40
2016,06,21,09,26,17.40
2016,06,21,09,27,17.40
2016,06,21,09,28,17.40
2016,06,21,09,29,17.40
2016,06,21,09,30,17.40
2016,06,21,09,31,17.50
2016,06,21,09,32,17.50
2016,06,21,09,33,17.50
2016,06,21,09,34,17.50
2016,06,21,09,35,17.60
2016,06,21,09,36,17.60
2016,06,21,09,37,17.60
2016,06,21,09,38,17.60
2016,06,21,09,39,17.60
2016,06,21,09,40,17.60
2016,06,21,09,41,17.70
2016,06,21,09,42,17.70
2016,06,21,09,43,17.70
2016,06,21,09,44,17.70
2016,06,21,09,45,17.70
2016,06,21,09,46,17.60
2016,06,21,09,47,17.60
2016,06,21,09,48,17.50
2016,06,21,09,49,17.50
2016,06,21,09,50,17.40
2016,06,21,09,51,17.40
2016,06,21,09,52,17.40
2016,06,21,09,53,17.50
2016,06,21,09,54,17.50
2016,06,21,09,55,17.60
2016,06,21,09,56,17.70
2016,06,21,09,57,17.80
2016,06,21,09,58,17.80
2016,06,21,09,59,17.80
2016,06,21,10,00,17.80
2016,06,21,10,01,17.80
2016,06,21,10,02,17.80
2016,06,21,10,03,17.80
2016,06,21,10,04,17.80
2016,06,21,10,05,17.80
2016,06,21,10,06,17.80
2016,06,21,10,07,17.80
2016,06,21,10,08,17.70
2016,06,21,10,09,17.70
2016,06,21,10,10,17.70
2016,06,21,10,11,17.70
2016,06,21,10,12,17.60
2016,06,21,10,13,17.60
2016,06,21,10,14,17.60
2016,06,21,10,15,17.60
2016,06,21,10,16,17.60
2016,06,21,10,17,17.70
2016,06,21,10,18,17.70
2016,06,21,10,19,17.80
2016,06,21,10,20,17.80
2016,06,21,10,21,17.80
2016,06,21,10,22,17.90
2016,06,21,10,23,17.90
2016,06,21,10,24,18.00
2016,06,21,10,25,18.10
2016,06,21,10,26,18.20
2016,06,21,10,27,18.20
2016,06,21,10,28,18.10
2016,06,21,10,29,18.10
2016,06,21,10,30,18.10
2016,06,21,10,31,18.10
2016,06,21,10,32,18.10
2016,06,21,10,33,18.00
2016,06,21,10,34,18.00
2016,06,21,10,35,18.00
2016,06,21,10,36,18.10
2016,06,21,10,37,18.10
2016,06,21,10,38,18.20
2016,06,21,10,39,18.30
2016,06,21,10,40,18.30
2016,06,21,10,41,18.40
2016,06,21,10,42,18.40
2016,06,21,10,43,18.50
2016,06,21,10,44,18.60
2016,06,21,10,45,18.70
2016,06,21,10,46,18.70
2016,06,21,10,47,18.70
2016,06,21,10,48,18.70
2016,06,21,10,49,18.80
2016,06,21,10,50,18.80
2016,06,21,10,51,18.80
2016,06,21,10,52,18.80
2016,06,21,10,53,18.80
2016,06,21,10,54,18.80
2016,06,21,10,55,18.90
2016,06,21,10,56,18.90
2016,06,21,10,57,18.90
2016,06,21,10,58,18.90
2016,06,21,10,59,18.80
2016,06,21,11,00,18.80
2016,06,21,11,01,18.80
2016,06,21,11,02,18.80
2016,06,21,11,03,18.80
2016,06,21,11,04,18.70
2016,06,21,11,05,18.70
2016,06,21,11,06,18.70
2016,06,21,11,07,18.70
2016,06,21,11,08,18.70
2016,06,21,11,09,18.70
2016,06,21,11,10,18.70
2016,06,21,11,11,18.70
2016,06,21,11,12,18.70
2016,06,21,11,13,18.80
2016,06,21,11,14,18.80
2016,06,21,11,15,18.80
2016,06,21,11,16,18.80
2016,06,21,11,17,18.80
2016,06,21,11,18,18.80
2016,06,21,11,19,18.70
2016,06,21,11,20,18.70
2016,06,21,11,21,18.80
2016,06,21,11,22,18.80
2016,06,21,11,23,18.80
2016,06,21,11,24,18.80
2016,06,21,11,25,18.80
2016,06,21,11,26,18.80
2016,06,21,11,27,18.90
2016,06,21,11,28,18.90
2016,06,21,11,29,18.80
2016,06,21,11,30,18.70
2016,06,21,11,31,18.70
2016,06,21,11,32,18.70
2016,06,21,11,33,18.80
2016,06,21,11,34,18.80
2016,06,21,11,35,18.90
2016,06,21,11,36,18.90
2016,06,21,11,37,19.00
2016,06,21,11,38,19.00
2016,06,21,11,39,19.00
2016,06,21,11,40,19.00
2016,06,21,11,41,19.10
2016,06,21,11,42,19.10
2016,06,21,11,43,19.20
2016,06,21,11,44,19.20
2016,06,21,11,45,19.30
2016,06,21,11,46,19.30
2016,06,21,11,47,19.30
2016,06,21,11,48,19.20
2016,06,21,11,49,19.20
2016,06,21,11,50,19.20
2016,06,21,11,51,19.20
2016,06,21,11,52,19.20
2016,06,21,11,53,19.20
2016,06,21,11,54,19.30
2016,06,21,11,55,19.40
2016,06,21,11,56,19.40
2016,06,21,11,57,19.40
2016,06,21,11,58,19.30
2016,06,21,11,59,19.40
2016,06,21,12,00,19.40
2016,06,21,12,01,19.40
2016,06,21,12,02,19.40
2016,06,21,12,03,19.40
2016,06,21,12,04,19.50
2016,06,21,12,05,19.50
2016,06,21,12,06,19.50
2016,06,21,12,07,19.60
2016,06,21,12,08,19.60
2016,06,21,12,09,19.60
2016,06,21,12,10,19.60
2016,06,21,12,11,19.70
2016,06,21,12,12,19.70
2016,06,21,12,13,19.70
2016,06,21,12,14,19.70
2016,06,21,12,15,19.60
2016,06,21,12,16,19.50
2016,06,21,12,17,19.40
2016,06,21,12,18,19.30
2016,06,21,12,19,19.30
2016,06,21,12,20,19.30
2016,06,21,12,21,19.30
2016,06,21,12,22,19.30
2016,06,21,12,23,19.30
2016,06,21,12,24,19.20
2016,06,21,12,25,19.20
2016,06,21,12,26,19.20
2016,06,21,12,27,19.20
2016,06,21,12,28,19.20
2016,06,21,12,29,19.30
2016,06,21,12,30,19.30
2016,06,21,12,31,19.40
2016,06,21,12,32,19.40
2016,06,21,12,33,19.50
2016,06,21,12,34,19.50
2016,06,21,12,35,19.40
2016,06,21,12,36,19.40
2016,06,21,12,37,19.40
2016,06,21,12,38,19.30
2016,06,21,12,39,19.20
2016,06,21,12,40,19.20
2016,06,21,12,41,19.30
2016,06,21,12,42,19.30
2016,06,21,12,43,19.30
2016,06,21,12,44,19.30
2016,06,21,12,45,19.30
2016,06,21,12,46,19.30
2016,06,21,12,47,19.30
2016,06,21,12,48,19.30
2016,06,21,12,49,19.30
2016,06,21,12,50,19.40
2016,06,21,12,51,19.40
2016,06,21,12,52,19.40
2016,06,21,12,53,19.30
2016,06,21,12,54,19.30
2016,06,21,12,55,19.30
2016,06,21,12,56,19.30
2016,06,21,12,57,19.30
2016,06,21,12,58,19.40
2016,06,21,12,59,19.60
2016,06,21,13,00,19.70
2016,06,21,13,01,19.70
2016,06,21,13,02,19.60
2016,06,21,13,03,19.60
2016,06,21,13,04,19.60
2016,06,21,13,05,19.60
2016,06,21,13,06,19.60
2016,06,21,13,07,19.60
2016,06,21,13,08,19.60
2016,06,21,13,09,19.50
2016,06,21,13,10,19.50
2016,06,21,13,11,19.50
2016,06,21,13,12,19.50
2016,06,21,13,13,19.60
2016,06,21,13,14,19.50
2016,06,21,13,15,19.50
2016,06,21,13,16,19.50
2016,06,21,13,17,19.60
2016,06,21,13,18,19.60
2016,06,21,13,19,19.60
2016,06,21,13,20,19.70
2016,06,21,13,21,19.60
2016,06,21,13,22,19.50
2016,06,21,13,23,19.50
2016,06,21,13,24,19.30
2016,06,21,13,25,19.30
2016,06,21,13,26,19.20
2016,06,21,13,27,19.20
2016,06,21,13,28,19.10
2016,06,21,13,29,19.10
2016,06,21,13,30,19.10
2016,06,21,13,31,19.00
2016,06,21,13,32,19.00
2016,06,21,13,33,19.10
2016,06,21,13,34,19.10
2016,06,21,13,35,19.20
2016,06,21,13,36,19.30
2016,06,21,13,37,19.30
2016,06,21,13,38,19.30
2016,06,21,13,39,19.30
2016,06,21,13,40,19.30
2016,06,21,13,41,19.30
2016,06,21,13,42,19.30
2016,06,21,13,43,19.30
2016,06,21,13,44,19.40
2016,06,21,13,45,19.40
2016,06,21,13,46,19.30
2016,06,21,13,47,19.30
2016,06,21,13,48,19.30
2016,06,21,13,49,19.20
2016,06,21,13,50,19.20
2016,06,21,13,51,19.30
2016,06,21,13,52,19.30
2016,06,21,13,53,19.20
2016,06,21,13,54,19.10
2016,06,21,13,55,19.10
2016,06,21,13,56,19.10
2016,06,21,13,57,19.20
2016,06,21,13,58,19.20
2016,06,21,13,59,19.20
2016,06,21,14,00,19.30
2016,06,21,14,01,19.30
2016,06,21,14,02,19.40
2016,06,21,14,03,19.50
2016,06,21,14,04,19.60
2016,06,21,14,05,19.60
2016,06,21,14,06,19.80
2016,06,21,14,07,19.80
2016,06,21,14,08,19.80
2016,06,21,14,09,19.70
2016,06,21,14,10,19.60
2016,06,21,14,11,19.60
2016,06,21,14,12,19.70
2016,06,21,14,13,19.70
2016,06,21,14,14,19.60
2016,06,21,14,15,19.60
2016,06,21,14,16,19.60
2016,06,21,14,17,19.60
2016,06,21,14,18,19.60
2016,06,21,14,19,19.60
2016,06,21,14,20,19.60
2016,06,21,14,21,19.60
2016,06,21,14,22,19.80
2016,06,21,14,23,19.90
2016,06,21,14,24,20.00
2016,06,21,14,25,20.00
2016,06,21,14,26,20.10
2016,06,21,14,27,20.10
2016,06,21,14,28,20.20
2016,06,21,14,29,20.30
2016,06,21,14,30,20.30
2016,06,21,14,31,20.30
2016,06,21,14,32,20.30
2016,06,21,14,33,20.40
2016,06,21,14,34,20.50
2016,06,21,14,35,20.60
2016,06,21,14,36,20.60
2016,06,21,14,37,20.60
2016,06,21,14,38,20.60
2016,06,21,14,39,20.60
2016,06,21,14,40,20.50
2016,06,21,14,41,20.40
2016,06,21,14,42,20.40
2016,06,21,14,43,20.30
2016,06,21,14,44,20.30
2016,06,21,14,45,20.30
2016,06,21,14,46,20.30
2016,06,21,14,47,20.30
2016,06,21,14,48,20.50
2016,06,21,14,49,20.60
2016,06,21,14,50,20.70
2016,06,21,14,51,20.60
2016,06,21,14,52,20.60
2016,06,21,14,53,20.50
2016,06,21,14,54,20.50
2016,06,21,14,55,20.50
2016,06,21,14,56,20.30
2016,06,21,14,57,20.20
2016,06,21,14,58,20.10
2016,06,21,14,59,20.10
2016,06,21,15,00,20.10
2016,06,21,15,01,20.10
2016,06,21,15,02,20.20
2016,06,21,15,03,20.20
2016,06,21,15,04,20.10
2016,06,21,15,05,20.00
2016,06,21,15,06,20.00
2016,06,21,15,07,19.90
2016,06,21,15,08,19.90
2016,06,21,15,09,19.80
2016,06,21,15,10,19.80
2016,06,21,15,11,19.90
2016,06,21,15,12,19.90
2016,06,21,15,13,19.90
2016,06,21,15,14,20.00
2016,06,21,15,15,20.10
2016,06,21,15,16,20.10
2016,06,21,15,17,20.10
2016,06,21,15,18,20.10
2016,06,21,15,19,20.20
2016,06,21,15,20,20.10
2016,06,21,15,21,20.00
2016,06,21,15,22,20.00
2016,06,21,15,23,19.90
2016,06,21,15,24,19.90
2016,06,21,15,25,19.70
2016,06,21,15,26,19.60
2016,06,21,15,27,19.50
2016,06,21,15,28,19.40
2016,06,21,15,29,19.30
2016,06,21,15,30,19.40
2016,06,21,15,31,19.40
2016,06,21,15,32,19.30
2016,06,21,15,33,19.30
2016,06,21,15,34,19.30
2016,06,21,15,35,19.30
2016,06,21,15,36,19.30
2016,06,21,15,37,19.30
2016,06,21,15,38,19.20
2016,06,21,15,39,19.20
2016,06,21,15,40,19.30
2016,06,21,15,41,19.30
2016,06,21,15,42,19.50
2016,06,21,15,43,19.60
2016,06,21,15,44,19.70
2016,06,21,15,45,19.80
2016,06,21,15,46,19.90
2016,06,21,15,47,19.90
2016,06,21,15,48,19.80
2016,06,21,15,49,19.80
2016,06,21,15,50,19.80
2016,06,21,15,51,19.80
2016,06,21,15,52,19.70
2016,06,21,15,53,19.70
2016,06,21,15,54,19.70
2016,06,21,15,55,19.70
2016,06,21,15,56,19.70
2016,06,21,15,57,19.70
2016,06,21,15,58,19.60
2016,06,21,15,59,19.60
2016,06,21,16,00,19.60
2016,06,21,16,01,19.60
2016,06,21,16,02,19.50
2016,06,21,16,03,19.50
2016,06,21,16,04,19.50
2016,06,21,16,05,19.50
2016,06,21,16,06,19.50
2016,06,21,16,07,19.40
2016,06,21,16,08,19.40
2016,06,21,16,09,19.30
2016,06,21,16,10,19.30
2016,06,21,16,11,19.30
2016,06,21,16,12,19.30
2016,06,21,16,13,19.30
2016,06,21,16,14,19.40
2016,06,21,16,15,19.40
2016,06,21,16,16,19.50
2016,06,21,16,17,19.50
2016,06,21,16,18,19.50
2016,06,21,16,19,19.40
2016,06,21,16,20,19.40
2016,06,21,16,21,19.40
2016,06,21,16,22,19.40
2016,06,21,16,23,19.30
2016,06,21,16,24,19.30
2016,06,21,16,25,19.20
2016,06,21,16,26,19.20
2016,06,21,16,27,19.20
2016,06,21,16,28,19.20
2016,06,21,16,29,19.20
2016,06,21,16,30,19.20
2016,06,21,16,31,19.20
2016,06,21,16,32,19.20
2016,06,21,16,33,19.20
2016,06,21,16,34,19.20
2016,06,21,16,35,19.20
2016,06,21,16,36,19.30
2016,06,21,16,37,19.30
2016,06,21,16,38,19.30
2016,06,21,16,39,19.40
2016,06,21,16,40,19.40
2016,06,21,16,41,19.40
2016,06,21,16,42,19.30
2016,06,21,16,43,19.30
2016,06,21,16,44,19.30
2016,06,21,16,45,19.20
2016,06,21,16,46,19.20
2016,06,21,16,47,19.20
2016,06,21,16,48,19.20
2016,06,21,16,49,19.20
2016,06,21,16,50,19.20
2016,06,21,16,51,19.10
2016,06,21,16,52,19.10
2016,06,21,16,53,19.10
2016,06,21,16,54,19.10
2016,06,21,16,55,19.10
2016,06,21,16,56,19.10
2016,06,21,16,57,19.10
2016,06,21,16,58,19.10
2016,06,21,16,59,19.10
2016,06,21,17,00,19.00
2016,06,21,17,01,19.00
2016,06,21,17,02,19.00
2016,06,21,17,03,19.00
2016,06,21,17,04,19.00
2016,06,21,17,05,19.00
2016,06,21,17,06,19.00
2016,06,21,17,07,19.00
2016,06,21,17,08,18.90
2016,06,21,17,09,18.90
2016,06,21,17,10,18.90
2016,06,21,17,11,18.90
2016,06,21,17,12,18.90
2016,06,21,17,13,19.00
2016,06,21,17,14,19.00
2016,06,21,17,15,19.10
2016,06,21,17,16,19.10
2016,06,21,17,17,19.10
2016,06,21,17,18,19.10
2016,06,21,17,19,19.10